Regional Weather Roundup
Issued by NWS Spokane, WA

Home | Current Version | Previous Version | Text Only | Print | Product List | Glossary On
Versions: 1 2 3 4 5 6 7 8 9 10 11 12 13 14 15 16 17 18 19 20 21 22 23 24 25 26 27 28 29 30 31 32 33 34 35 36 37 38 39 40 41 42 43 44 45 46 47 48 49 50
000
NZUS01 KOTX 261700
RWROTX
EASTERN WASHINGTON/NORTHERN IDAHO ROUNDUP
NATIONAL WEATHER SERVICE, SPOKANE WA
1000 AM PDT THU MAY 26 2016

Note: "fair" indicated few or no clouds below 12,000 feet with no
significant weather and/or obstructions to visibility.

...NORTHEAST WASHINGTON AND NORTHERN IDAHO PANHANDLE...

CITY           SKY/WX    TMP DP  RH WIND       PRES   REMARKS
SPOKANE INTL   PTSUNNY   57  43  59 S13       30.04S
SPOKANE DOWNTO MOSUNNY   59  44  57 S10       30.05S
COEUR D ALENE  PTSUNNY   57  45  62 S15       30.03S
DEER PARK      MOSUNNY   58  44  60 S8        30.04S

...SOUTHEAST WASHINGTON AND SOUTHERN IDAHO PANHANDLE...

CITY           SKY/WX    TMP DP  RH WIND       PRES   REMARKS
WALLA WALLA    MOSUNNY   61  42  49 SW18G26   30.07F
PULLMAN/MOSCOW PTSUNNY   58  44  60 W13       30.08S
LOWELL           N/A     63  49  60 CALM      30.02F

...COLUMBIA BASIN...

CITY           SKY/WX    TMP DP  RH WIND       PRES   REMARKS
EPHRATA        MOSUNNY   65  39  38 VRB5      30.00S
MOSES LAKE     PTSUNNY   65  40  39 VRB6      30.02S
TRI CITIES     PTSUNNY   66  43  43 SW12      30.05F
HERMISTON        N/A    N/A N/A N/A MISG      30.07F
PENDLETON      MOSUNNY   60  39  45 W18G26    30.09S

...EAST SLOPES CASCADES...

CITY           SKY/WX    TMP DP  RH WIND       PRES   REMARKS
THE DALLES     MOSUNNY   60  39  45 NW23G31   30.14F
YAKIMA         MOSUNNY   66  38  35 NW7       30.05S
ELLENSBURG     PTSUNNY   55  38  52 NW32G40   30.04F
WENATCHEE      CLOUDY    64  37  36 NW15      30.01F
OMAK           PTSUNNY   67  38  34 N12       29.97F

...SOUTHERN BRITISH COLUMBIA...

CITY           SKY/WX    TMP DP  RH WIND       PRES   REMARKS

...WESTERN MONTANA...

CITY           SKY/WX    TMP DP  RH WIND       PRES   REMARKS
MISSOULA       CLOUDY    58  46  64 SE3       30.02F

...NEIGHBORING CITIES...

CITY           SKY/WX    TMP DP  RH WIND       PRES   REMARKS
SEATTLE        CLOUDY    52  45  77 SW7       30.20S



USA.gov is the U.S. government's official web portal to all federal, state and local government web resources and services.